When you browse on this site, cookies collect data to enhance your experience and personalize the content and advertising you see.
Visit our Privacy Policy to learn more. By continuing to use the site, you agree to this use of cookies and data.
  • In Spain
  • List of Countries
  • For 7 days
  • Water Temperature
  • Weather Map
  • Weather Widgets
  • user-avatar
    Login

    Hourly Weather Usti nad Labem

    Today, 5 June, Friday

    Time Temperature Precipitation Wind Pressure Humidity
    00:00 +15°C° 0.6 mm 2 mps 725 mmHg 94%
    01:00 +15°C° 0 mm 2 mps 725 mmHg 96%
    02:00 +14°C° 0.1 mm 2 mps 725 mmHg 95%
    03:00 +14°C° 0.1 mm 2 mps 725 mmHg 95%
    04:00 +14°C° 0.1 mm 2 mps 725 mmHg 95%
    05:00 +13°C° 0.1 mm 3 mps 726 mmHg 93%
    06:00 +13°C° 0.1 mm 3 mps 726 mmHg 91%
    07:00 +13°C° 0.1 mm 3 mps 727 mmHg 89%
    08:00 +13°C° 0.1 mm 3 mps 727 mmHg 86%
    09:00 +13°C° 0.1 mm 3 mps 727 mmHg 84%
    10:00 +14°C° 0.1 mm 2 mps 727 mmHg 81%
    11:00 +14°C° 0.1 mm 3 mps 727 mmHg 75%
    12:00 +17°C° 0.1 mm 3 mps 728 mmHg 69%
    13:00 +18°C° 0.1 mm 4 mps 728 mmHg 63%
    14:00 +18°C° 0.1 mm 4 mps 728 mmHg 60%
    15:00 +17°C° 0.1 mm 5 mps 727 mmHg 56%
    16:00 +19°C° 0.1 mm 5 mps 727 mmHg 53%
    17:00 +17°C° 0.1 mm 5 mps 727 mmHg 59%
    18:00 +17°C° 0.1 mm 4 mps 727 mmHg 65%
    19:00 +15°C° 0.1 mm 4 mps 727 mmHg 70%
    20:00 +14°C° 0.1 mm 4 mps 728 mmHg 74%
    21:00 +13°C° 0.1 mm 4 mps 728 mmHg 78%
    22:00 +12°C° 0.1 mm 5 mps 728 mmHg 82%
    23:00 +10°C° 0 mm 5 mps 729 mmHg 82%

    Tomorrow, 6 June, Saturday

    Time Temperature Precipitation Wind Pressure Humidity
    00:00 +11°C° 0 mm 4 mps 730 mmHg 83%
    01:00 +10°C° 0 mm 4 mps 730 mmHg 83%
    02:00 +10°C° 0 mm 4 mps 731 mmHg 84%
    03:00 +8°C° 0 mm 4 mps 731 mmHg 86%
    04:00 +8°C° 0 mm 3 mps 732 mmHg 87%
    05:00 +8°C° 0 mm 4 mps 732 mmHg 81%
    06:00 +11°C° 0 mm 4 mps 732 mmHg 75%
    07:00 +12°C° 0 mm 5 mps 733 mmHg 69%
    08:00 +12°C° 0.1 mm 5 mps 733 mmHg 70%
    09:00 +13°C° 0.1 mm 5 mps 733 mmHg 72%
    10:00 +13°C° 0.1 mm 5 mps 733 mmHg 73%
    11:00 +13°C° 0.3 mm 4 mps 733 mmHg 78%
    12:00 +12°C° 0.3 mm 3 mps 733 mmHg 84%
    13:00 +13°C° 0.3 mm 2 mps 733 mmHg 89%
    14:00 +14°C° 0.1 mm 2 mps 733 mmHg 84%
    15:00 +16°C° 0.1 mm 3 mps 733 mmHg 79%
    16:00 +17°C° 0.1 mm 3 mps 733 mmHg 74%
    17:00 +16°C° 0 mm 3 mps 733 mmHg 78%
    18:00 +16°C° 0 mm 3 mps 733 mmHg 82%
    19:00 +15°C° 0 mm 2 mps 733 mmHg 86%
    20:00 +14°C° 0 mm 2 mps 733 mmHg 89%
    21:00 +14°C° 0 mm 2 mps 734 mmHg 91%
    22:00 +13°C° 0 mm 1 mps 734 mmHg 93%
    23:00 +13°C° 0 mm 1 mps 734 mmHg 94%

    Day after tomorrow, 7 June, Sunday

    Time Temperature Precipitation Wind Pressure Humidity
    00:00 +13°C° 0 mm 1 mps 734 mmHg 94%
    01:00 +13°C° 0 mm 1 mps 734 mmHg 95%
    02:00 +13°C° 0.2 mm 1 mps 734 mmHg 95%
    03:00 +13°C° 0.2 mm 1 mps 734 mmHg 95%
    04:00 +13°C° 0.2 mm 1 mps 734 mmHg 96%
    05:00 +13°C° 0.2 mm 1 mps 734 mmHg 94%
    06:00 +14°C° 0.2 mm 1 mps 734 mmHg 93%
    07:00 +15°C° 0.2 mm 1 mps 735 mmHg 92%
    08:00 +15°C° 0.3 mm 1 mps 735 mmHg 88%
    09:00 +16°C° 0.3 mm 2 mps 736 mmHg 84%
    10:00 +17°C° 0.3 mm 2 mps 736 mmHg 81%
    11:00 +17°C° 0.2 mm 2 mps 736 mmHg 75%
    12:00 +18°C° 0.2 mm 3 mps 737 mmHg 70%
    13:00 +18°C° 0.2 mm 3 mps 737 mmHg 65%
    14:00 +19°C° 0 mm 3 mps 737 mmHg 62%
    15:00 +19°C° 0 mm 3 mps 737 mmHg 58%
    16:00 +19°C° 0 mm 3 mps 737 mmHg 55%
    17:00 +18°C° 0 mm 2 mps 737 mmHg 60%
    18:00 +17°C° 0 mm 2 mps 737 mmHg 66%
    19:00 +16°C° 0 mm 1 mps 737 mmHg 71%
    20:00 +14°C° 0 mm 1 mps 738 mmHg 74%
    21:00 +13°C° 0 mm 1 mps 738 mmHg 77%
    22:00 +11°C° 0 mm 0 mps 738 mmHg 79%
    23:00 +12°C° 0 mm 1 mps 738 mmHg 79%

    8 June, Monday

    Time Temperature Precipitation Wind Pressure Humidity
    00:00 +12°C° 0 mm 1 mps 738 mmHg 78%
    01:00 +12°C° 0 mm 1 mps 738 mmHg 77%
    02:00 +12°C° 0.1 mm 1 mps 738 mmHg 79%
    03:00 +12°C° 0.1 mm 1 mps 738 mmHg 81%
    04:00 +12°C° 0.1 mm 1 mps 738 mmHg 84%
    05:00 +12°C° 0.7 mm 1 mps 738 mmHg 87%
    06:00 +12°C° 0.7 mm 1 mps 738 mmHg 90%
    07:00 +12°C° 0.7 mm 1 mps 738 mmHg 94%
    08:00 +12°C° 0.9 mm 2 mps 739 mmHg 93%
    09:00 +12°C° 0.9 mm 2 mps 739 mmHg 93%
    10:00 +12°C° 0.9 mm 3 mps 739 mmHg 93%
    11:00 +12°C° 0.3 mm 3 mps 739 mmHg 92%
    12:00 +12°C° 0.3 mm 3 mps 739 mmHg 92%
    13:00 +12°C° 0.3 mm 3 mps 739 mmHg 92%
    14:00 +12°C° 0.2 mm 3 mps 739 mmHg 92%
    15:00 +12°C° 0.2 mm 3 mps 739 mmHg 92%
    16:00 +13°C° 0.2 mm 2 mps 738 mmHg 93%
    17:00 +13°C° 0.4 mm 2 mps 739 mmHg 94%
    18:00 +13°C° 0.4 mm 2 mps 739 mmHg 95%
    19:00 +12°C° 0.4 mm 2 mps 739 mmHg 96%
    20:00 +13°C° 0.5 mm 2 mps 739 mmHg 97%
    21:00 +13°C° 0.5 mm 2 mps 739 mmHg 97%
    22:00 +13°C° 0.5 mm 2 mps 739 mmHg 97%
    23:00 +13°C° 0.3 mm 2 mps 739 mmHg 97%

    9 June, Tuesday

    Time Temperature Precipitation Wind Pressure Humidity
    00:00 +13°C° 0.3 mm 2 mps 739 mmHg 97%
    01:00 +13°C° 0.3 mm 1 mps 739 mmHg 98%
    02:00 +13°C° 0.3 mm 2 mps 739 mmHg 98%
    03:00 +13°C° 0.3 mm 2 mps 739 mmHg 98%
    04:00 +13°C° 0.3 mm 2 mps 739 mmHg 98%
    05:00 +13°C° 0.3 mm 2 mps 739 mmHg 97%
    06:00 +13°C° 0.3 mm 2 mps 740 mmHg 97%
    07:00 +14°C° 0.3 mm 2 mps 740 mmHg 97%
    08:00 +14°C° 0.4 mm 2 mps 740 mmHg 96%
    09:00 +14°C° 0.4 mm 2 mps 740 mmHg 95%
    10:00 +14°C° 0.4 mm 2 mps 741 mmHg 95%
    11:00 +13°C° 0 mm 3 mps 741 mmHg 93%
    12:00 +13°C° 0 mm 3 mps 741 mmHg 92%
    13:00 +13°C° 0 mm 3 mps 741 mmHg 91%
    14:00 +13°C° 0 mm 3 mps 741 mmHg 89%
    15:00 +14°C° 0 mm 3 mps 741 mmHg 87%
    16:00 +14°C° 0 mm 3 mps 741 mmHg 85%
    17:00 +14°C° 0 mm 3 mps 741 mmHg 86%
    18:00 +13°C° 0 mm 3 mps 741 mmHg 88%
    19:00 +12°C° 0 mm 3 mps 741 mmHg 89%
    20:00 +13°C° 0 mm 2 mps 741 mmHg 90%
    21:00 +12°C° 0 mm 2 mps 742 mmHg 92%
    22:00 +12°C° 0 mm 2 mps 742 mmHg 93%
    23:00 +12°C° 0 mm 1 mps 742 mmHg 94%

    10 June, Wednesday

    Time Temperature Precipitation Wind Pressure Humidity
    00:00 +12°C° 0 mm 1 mps 742 mmHg 94%
    01:00 +12°C° 0 mm 1 mps 742 mmHg 95%
    02:00 +12°C° 0 mm 1 mps 742 mmHg 95%
    03:00 +12°C° 0 mm 1 mps 742 mmHg 94%
    04:00 +12°C° 0 mm 1 mps 742 mmHg 94%
    05:00 +13°C° 0 mm 2 mps 742 mmHg 93%
    06:00 +13°C° 0 mm 2 mps 742 mmHg 92%
    07:00 +14°C° 0 mm 2 mps 743 mmHg 90%
    08:00 +14°C° 0 mm 2 mps 743 mmHg 88%
    09:00 +15°C° 0 mm 2 mps 743 mmHg 86%
    10:00 +16°C° 0 mm 2 mps 743 mmHg 83%
    11:00 +16°C° 0 mm 3 mps 743 mmHg 81%
    12:00 +17°C° 0 mm 3 mps 743 mmHg 80%
    13:00 +18°C° 0 mm 3 mps 742 mmHg 78%
    14:00 +18°C° 0 mm 3 mps 742 mmHg 78%
    15:00 +18°C° 0 mm 3 mps 742 mmHg 79%
    16:00 +18°C° 0 mm 4 mps 742 mmHg 79%
    17:00 +18°C° 0 mm 3 mps 742 mmHg 81%
    18:00 +17°C° 0 mm 3 mps 742 mmHg 84%
    19:00 +17°C° 0 mm 2 mps 742 mmHg 87%
    20:00 +16°C° 0 mm 2 mps 742 mmHg 88%
    21:00 +16°C° 0 mm 2 mps 743 mmHg 90%
    22:00 +15°C° 0 mm 2 mps 743 mmHg 92%
    23:00 +15°C° 0 mm 2 mps 743 mmHg 93%
    Show more